FALCON 9 DEB (55445 NORAD) Tracking and Keplerian Element Data

This shows tracking and keplerian element data for the satellite.

Feedback or suggestion? Click here.




ElementValue
Catalog55445
NameFALCON 9 DEB
Epoch Orbit518
Epoch Day62.3521908
Epoch Year2023
RAAN1.5433
Inclination70.0054
Eccentricity0.0009469
Argument of Perigee183.7404
Mean Anonmoly176.3738
Mean Motion15.98648438
Decay Rate0.00710404
L11 55445U 23014BG 23062.35219080 .00710404 22957-3 14950-2 0 9999
L22 55445 70.0054 1.5433 0009469 183.7404 176.3738 15.98648438 5187



Live tracking and technical data element details for FALCON 9 DEB (NORAD 55445). FALCON 9 DEB can be tracked NOW for your location showing map with azimuth and elevation plus other details from your city location.







IsCatalogInMostPopularTable: catalog: 55445, numindb: -1

Insert: records affected: 1


GetName: 55445 FALCON 9 DEB

Hit Count: inserted at: Mon, 05 Jun 2023 20:50:04 GMT